星链-2052 (STARLINK-2052 )

导读 | 豆包AI

STARLINK-2052是美国SpaceX公司星链项目下的低轨互联网通信卫星,于2021年2月16日发射。作为星链星座组网的重要一环,它运行于近地轨道,依托低轨布局,具备低时延、高带宽的通信特性,可配合星座为偏远区域、海上空中场景提供互联网接入服务,助力星链实现全球宽带覆盖目标,同时也服务于应急通信等场景。

基本信息
目录编号:
47662
目录名称:
STARLINK-2052
国际标识:
2021-012AU
轨道中心:
EARTH
卫星名称:
星链-2052
卫星全名:
星链-2052 (STARLINK-2052 )
卫星状态:
已陨落 最后检测时间 2026-02-19
发射日期:
2021-02-16 UTC
国别 :
美国 (US)
星等 :
--
轨道信息
数据来源 国际轨道数据
星历时间: 2026-02-19T22:01:26+0800
轨道信息已过期94天
半长轴: 6534.28km
偏心率: 0.0002797
轨道倾角: 53.017°
近地点辐角 244.500°
升交点赤经 57.842°
平近点角 115.576°
近地点: 154.315km
远地点: 157.971km
周期: 87.611分钟
每日圈数: 16.436381
详细信息
固有亮度:
5
最大亮度:
2.5
卫星平台:
Starlink V1.0
覆盖范围:
全球
运营商:
太空探索技术公司
运营商所在国:
美国
制造商(研发单位):
太空探索技术公司
制造商所在国:
美国
使用方式:
暂无
卫星简介
星链(Starlink)计划是由太空探索技术公司(SpaceX)提出的一个巨型低轨卫星互联网星座项目,计划在2019年至2024年间在太空搭建由约1.2万颗卫星组成的“星链”网络,其中1584颗将部署在地球上空550千米处的近地轨道,并从2020年开始工作。该卫星仍在工作。